Probability
6 5 3 2 1 0 0 0 0 0 0 0 0 0 1 1 1 1 1 0 0 0 0 0 0 0 0 0 0 0 0 0 0 0 0 0 0 0 0 0 0 0 0
6 6 4 2 1 0 0 0 0 0 0 0 0 0 0 1 1 2 1 0 0 0 0 0 0 0 0 0 0 0 0 0 0 0 0 0 0 0 0 0 0 0 0
6 6 6 4 3 1 1 1 0 0 0 0 0 0 0 0 1 1 1 0 0 0 0 0 0 0 0 0 0 0 0 0 0 0 0 0 0 0 0 0 0 0 0
5 5 6 5 4 4 3 2 1 0 0 0 0 0 0 0 0 0 0 0 0 0 0 1 1 0 0 0 0 0 0 1 2 1 1 0 0 0 0 0 0 0 0
4 4 4 4 4 5 5 3 2 1 1 0 0 0 0 0 0 0 0 0 0 0 0 1 1 0 0 0 0 0 0 1 2 3 2 1 1 2 1 1 0 0 0
3 3 3 3 3 4 4 4 3 3 2 1 0 0 0 0 0 0 0 0 0 0 0 1 1 0 0 0 0 0 0 1 1 2 3 2 2 3 3 2 1 1 0
3 3 3 3 3 3 3 4 4 4 3 1 0 0 0 0 0 0 0 0 0 0 0 0 0 0 0 0 0 0 0 0 0 1 1 1 2 3 3 3 2 1 0
3 3 3 3 3 3 3 3 4 4 3 1 0 0 0 0 0 0 0 0 0 0 0 0 0 0 0 0 0 0 0 0 0 0 0 0 1 2 3 3 3 2 1
3 3 3 3 3 3 3 3 3 3 2 1 1 0 0 0 0 0 0 0 0 0 0 0 0 0 0 0 0 0 0 0 0 0 0 0 0 1 1 3 3 1 0
3 3 3 3 3 3 3 3 2 1 1 1 1 0 0 0 0 0 0 0 0 0 0 0 0 0 0 0 0 0 0 0 0 0 0 0 0 1 1 2 2 1 0
3 3 2 2 2 2 2 1 1 0 0 1 1 0 0 0 0 0 0 0 0 0 0 0 0 0 0 0 0 0 0 0 0 0 0 0 0 1 1 1 1 1 0
2 1 1 1 1 1 1 0 0 0 0 0 0 0 0 0 0 0 0 0 0 0 0 0 0 0 0 0 0 0 0 0 0 0 0 0 0 1 1 0 0 0 0
2 1 0 0 0 0 0 0 0 0 0 0 0 0 0 0 0 0 0 0 0 0 0 0 0 0 0 0 0 0 0 0 0 0 0 0 0 0 0 0 0 0 0
1 1 1 0 0 0 0 0 0 0 0 0 0 0 0 0 0 0 0 0 0 0 0 0 0 0 0 0 0 0 0 0 0 0 0 0 0 0 0 0 0 0 0
2 2 2 1 0 0 0 0 0 0 0 0 0 0 0 0 0 0 0 0 0 0 0 0 0 0 0 0 0 0 0 0 0 0 0 0 0 0 0 0 0 0 0
3 3 3 2 1 0 0 0 0 0 0 0 0 0 0 0 0 0 0 0 0 0 0 0 0 0 0 0 0 0 0 0 0 0 0 0 0 0 0 0 0 0 0
2 3 3 2 1 0 0 0 0 0 0 0 0 0 0 0 0 0 0 0 0 0 0 0 0 0 0 0 0 0 0 0 0 0 0 0 0 0 0 0 0 0 0
2 3 3 3 1 0 0 0 0 0 0 0 0 0 0 0 0 0 0 0 0 0 0 0 0 0 0 0 0 0 0 0 0 0 0 0 0 0 0 0 0 0 0
2 2 2 2 1 0 0 0 0 0 0 0 0 0 0 0 0 0 0 0 0 0 0 0 0 0 0 0 0 0 0 0 0 0 0 0 0 0 0 0 0 0 0
2 1 1 1 1 0 0 0 0 0 0 0 0 0 0 0 0 0 0 0 0 0 0 0 0 0 0 0 0 0 0 0 0 0 0 0 0 0 0 0 0 0 0
2 1 0 0 0 0 0 0 0 0 0 0 0 0 0 0 0 0 0 0 0 0 0 0 0 0 0 0 0 0 0 0 0 0 0 0 0 0 0 0 0 0 0
1 0 0 0 0 0 0 0 0 0 0 0 0 0 0 0 0 0 0 0 0 0 0 0 0 0 0 0 0 0 0 0 0 0 0 0 0 0 0 0 0 0 0
0 0 0 0 0 0 0 0 0 0 0 0 0 0 0 0 0 0 0 0 0 0 0 0 0 0 0 0 0 0 0 0 0 0 0 0 0 0 0 0 0 0 0
0 0 0 0 0 0 0 0 0 0 0 0 0 0 0 0 0 0 0 0 0 0 0 0 0 0 0 0 0 0 0 0 0 0 0 0 0 0 0 0 0 0 0
0 0 0 0 0 0 0 0 0 0 0 0 0 0 0 0 0 0 0 0 0 0 0 0 0 0 0 0 0 0 0 0 0 0 0 0 0 0 0 0 0 0 0
0 0 0 0 0 0 0 0 0 0 0 0 0 0 0 0 0 0 0 0 0 0 0 0 0 0 0 0 0 0 0 0 0 0 0 0 0 0 0 0 0 0 0
Wind_Speed
3 3 3 3 2 3 2 2 2 2 3 3 3 3 3 3 3 3 4 4 4 4 3 3 3 3 2 2 2 2 2 2 2 1 1 2 3 2 2 2 2 2 4
3 4 3 3 3 3 3 2 2 2 2 3 3 3 3 4 3 3 4 4 4 4 4 3 3 2 3 2 2 3 2 2 2 2 2 2 2 2 2 2 2 1 2
3 4 4 4 3 3 3 2 2 2 3 3 3 3 4 4 4 4 4 4 4 4 4 4 3 3 4 3 3 3 2 2 2 3 3 2 2 2 2 2 2 1 1
4 4 4 4 3 3 3 2 2 2 3 3 3 3 3 3 3 3 4 4 3 3 3 3 3 3 4 3 3 3 3 3 3 3 3 3 2 2 3 3 2 2 1
4 4 4 3 3 3 2 2 2 2 3 3 3 3 3 3 2 2 2 3 3 3 3 3 2 0 1 1 2 2 3 3 3 3 3 3 3 3 3 3 3 2 2
4 4 3 4 3 3 3 3 2 2 3 2 2 3 2 2 2 1 2 3 3 3 3 2 2 3 3 3 2 1 2 3 3 4 3 4 4 4 3 3 3 3 2
5 4 4 4 4 4 3 3 3 3 3 3 3 3 3 2 3 2 3 3 3 2 2 2 2 2 3 4 5 5 4 3 4 4 4 4 4 4 4 4 4 4 2
5 4 4 4 4 4 3 3 3 3 3 3 3 3 2 2 3 3 3 4 3 3 2 3 3 3 2 3 3 3 3 3 4 4 4 3 3 3 4 4 4 4 3
5 5 5 5 4 4 4 4 3 3 3 3 3 3 3 3 4 3 3 3 2 2 2 2 2 2 2 2 3 4 4 3 3 2 0 1 1 1 3 3 4 4 3
5 5 5 5 5 5 5 4 3 3 3 3 3 3 3 3 4 4 4 2 2 2 1 1 1 1 2 3 4 4 4 4 3 4 4 4 4 5 6 6 5 5 4
5 5 5 5 5 5 4 4 4 3 3 3 3 3 3 3 4 4 4 3 2 2 2 2 1 3 3 3 5 4 3 3 4 4 4 3 3 4 5 5 5 5 4
4 5 5 5 4 4 4 3 4 3 4 4 3 2 2 2 2 3 4 3 3 3 3 2 2 3 3 4 4 2 3 4 3 3 3 4 3 3 4 4 5 5 5
4 4 5 5 4 4 4 4 4 4 3 3 3 3 3 2 2 3 4 5 5 3 2 1 1 3 4 4 5 5 5 4 4 4 4 4 3 3 3 3 4 4 5
5 5 5 5 4 4 4 4 4 4 4 4 4 3 3 3 3 3 3 4 4 4 3 3 3 4 4 3 4 5 4 4 4 4 4 3 3 3 3 4 4 4 4
5 5 5 4 4 4 4 4 5 5 4 5 4 4 4 4 4 3 3 4 4 4 3 3 4 4 4 4 4 4 4 4 4 4 4 4 4 4 4 4 4 4 5
5 5 4 4 4 4 4 3 2 4 4 5 4 4 4 3 3 4 5 4 4 4 4 4 4 5 5 5 5 4 4 4 4 4 4 4 4 4 4 4 4 5 6
5 5 4 4 4 4 4 4 3 3 3 5 5 5 5 3 4 5 5 5 5 6 5 5 5 5 4 4 5 5 5 5 5 5 5 5 5 5 5 5 5 5 6
5 5 4 4 4 4 5 5 4 4 4 4 5 6 6 5 5 5 6 5 4 5 5 5 5 5 4 5 5 5 4 4 5 5 5 5 5 5 5 6 6 6 6
5 4 4 4 4 4 4 4 4 5 4 4 3 4 5 5 4 5 6 5 5 5 5 5 5 5 5 5 5 5 5 5 6 5 6 6 6 6 6 6 6 6 6
3 3 4 4 4 4 4 5 5 5 5 4 4 4 4 4 4 4 5 5 5 5 5 5 5 5 5 5 5 5 6 6 6 6 6 6 6 6 7 7 7 6 6
3 3 5 5 4 4 5 5 5 5 4 4 4 4 4 5 5 6 5 5 5 5 5 6 5 5 5 5 5 6 7 6 6 6 6 6 6 6 6 6 7 7 6
3 3 4 4 4 4 4 4 5 5 5 5 4 4 6 5 5 5 5 5 5 5 5 5 5 5 5 6 6 6 6 6 6 6 6 6 6 6 6 7 7 7 7
4 3 3 3 4 4 4 4 4 4 5 5 4 4 4 5 5 5 5 5 5 5 5 6 6 6 6 6 6 6 7 7 6 6 6 6 6 6 6 7 8 8 7
3 3 3 3 3 4 4 4 4 4 5 5 5 5 5 5 5 5 5 4 5 5 5 6 6 8 9 7 6 6 7 6 6 6 7 7 6 6 6 7 7 8 8
3 3 3 3 3 4 4 4 4 5 5 5 5 5 5 5 5 5 5 5 6 6 7 7 6 7 9 10 9 7 6 7 7 6 6 6 7 7 7 7 7 7 7
3 3 3 3 3 4 4 4 5 5 5 4 4 5 5 5 5 5 5 5 5 5 6 6 7 8 9 8 9 8 6 6 7 7 6 6 6 6 7 6 8 7 8
Wind_Direction
187 197 204 204 216 212 208 208 216 215 199 193 200 202 194 194 199 197 206 205 212 217 220 226 232 235 223 217 219 220 234 243 201 175 139 148 159 159 140 131 122 129 110
194 196 203 203 208 215 208 210 213 208 203 207 203 200 199 204 206 206 210 214 218 223 227 223 222 215 220 219 220 219 217 226 200 180 167 174 178 173 158 155 150 131 121
195 202 200 204 213 215 210 203 209 206 202 203 200 203 207 208 204 207 218 218 219 227 234 233 228 215 216 205 212 216 211 195 185 182 172 163 178 176 168 164 168 164 155
194 204 206 208 214 217 204 203 207 207 207 207 202 205 206 207 208 206 218 219 222 226 236 243 237 228 228 213 211 209 200 189 184 183 175 176 173 177 192 187 180 179 186
197 205 207 207 204 207 203 208 208 213 212 212 208 208 201 205 203 211 218 222 220 219 224 234 239 241 334 250 230 214 203 196 187 188 185 183 183 182 200 199 192 192 187
204 205 198 207 200 208 209 203 204 220 218 199 204 195 195 192 114 223 250 228 226 221 217 214 196 190 180 176 178 193 221 213 205 201 200 200 202 199 195 198 199 204 203
209 206 197 202 202 208 206 199 206 210 204 197 200 196 199 161 146 181 249 244 230 234 228 213 209 205 207 201 183 184 192 216 231 231 222 225 218 205 199 202 207 215 225
204 204 204 205 204 205 203 205 210 202 199 208 201 203 199 174 160 178 233 234 224 222 215 211 213 210 211 214 196 191 196 204 215 224 230 230 226 204 205 209 204 212 225
204 207 207 208 206 204 206 213 211 199 195 205 203 202 204 189 167 186 227 218 216 218 218 221 227 214 164 223 209 200 195 194 179 190 318 126 105 150 207 200 195 202 214
209 211 210 210 210 211 213 217 206 198 201 204 203 211 210 208 170 188 227 223 213 206 205 205 207 241 178 239 226 218 216 209 198 189 196 191 194 182 199 213 207 215 221
209 210 211 210 213 213 212 211 204 198 199 205 207 215 216 210 178 188 219 234 222 217 218 219 188 161 193 236 259 245 240 241 219 213 209 207 205 200 204 219 219 227 230
204 205 208 209 205 204 205 206 204 200 203 204 203 211 217 204 201 195 211 240 265 236 232 226 186 170 211 235 243 229 232 241 228 220 217 213 211 210 211 215 220 224 237
204 206 208 205 201 201 197 195 199 202 210 214 209 216 221 217 192 192 206 219 239 248 246 246 216 203 216 219 208 212 221 226 223 224 224 226 224 222 213 211 219 220 232
211 209 208 206 200 198 198 200 206 207 210 216 216 222 226 224 215 202 203 206 211 224 225 190 200 219 231 228 212 216 228 233 233 232 232 228 219 215 216 214 215 211 219
216 212 211 207 202 203 205 210 218 220 224 226 225 222 221 227 225 230 224 220 222 224 222 221 223 221 225 227 229 227 223 220 224 229 229 226 223 223 221 218 226 223 227
220 215 213 208 204 207 206 210 223 243 236 238 252 252 242 245 205 208 227 234 219 200 217 225 228 229 231 232 232 230 228 226 227 229 231 231 229 228 227 222 222 228 234
229 219 215 216 212 213 214 218 221 217 223 232 233 241 250 234 210 208 209 210 205 198 222 233 234 236 239 241 240 239 238 233 231 231 233 233 233 234 233 229 227 232 236
235 226 221 222 221 221 220 223 225 225 222 224 220 221 225 224 214 207 193 185 204 215 234 239 240 239 242 243 243 244 245 239 232 232 234 235 234 234 234 234 231 233 237
233 229 223 225 226 228 227 227 227 229 230 228 217 203 204 205 204 199 187 212 218 221 230 237 241 241 241 242 243 243 243 242 236 231 233 234 234 236 237 240 240 236 241
233 233 235 229 224 225 226 225 226 228 229 229 227 219 190 196 209 206 213 229 232 233 235 238 239 241 242 242 243 242 242 242 240 237 234 232 232 234 237 239 241 239 237
234 217 215 226 228 227 228 229 227 228 231 232 235 226 211 217 222 224 224 230 234 236 238 239 239 240 241 241 241 242 244 244 242 240 237 235 233 235 238 238 240 243 244
236 228 219 220 224 229 234 233 231 231 231 235 238 220 206 228 232 232 231 233 237 240 243 244 243 239 239 241 243 244 245 247 245 243 239 238 237 236 237 237 238 239 240
242 238 233 225 223 224 231 235 235 236 236 234 233 229 219 231 235 237 238 238 238 241 243 242 244 244 241 241 241 242 245 248 247 248 246 243 240 238 235 235 236 238 238
247 242 240 236 231 230 232 235 237 238 239 238 235 233 232 233 236 240 242 244 244 244 243 243 246 248 249 249 247 245 247 252 251 246 246 246 245 244 240 238 238 237 238
248 242 241 241 236 236 239 241 241 240 239 237 237 237 236 236 237 240 242 242 245 247 248 248 247 248 250 251 251 250 249 247 245 249 246 244 243 242 242 243 240 239 238
254 245 240 239 238 238 239 242 243 243 243 241 241 241 241 241 242 244 245 246 246 248 249 249 249 250 251 252 255 257 251 238 235 241 244 243 242 242 241 242 242 240 239